﻿測定場所 (Monitoring sites),日付 (Measurement date),時間 (Measurement time),線量率 最大値 (max) μGy/h,線量率 最小値 (min) μGy/h,線量率 平均値 (average) μGy/h,
新宿 (Shinjuku),2011-08-21,23:00～23:59,0.0599,0.0544,0.0570,
新宿 (Shinjuku),2011-08-21,22:00～22:59,0.0602,0.0518,0.0566,
新宿 (Shinjuku),2011-08-21,21:00～21:59,0.0603,0.0542,0.0570,
新宿 (Shinjuku),2011-08-21,20:00～20:59,0.0600,0.0547,0.0573,
新宿 (Shinjuku),2011-08-21,19:00～19:59,0.0603,0.0558,0.0582,
新宿 (Shinjuku),2011-08-21,18:00～18:59,0.0601,0.0545,0.0571,
新宿 (Shinjuku),2011-08-21,17:00～17:59,0.0595,0.0537,0.0570,
新宿 (Shinjuku),2011-08-21,16:00～16:59,0.0605,0.0550,0.0576,
新宿 (Shinjuku),2011-08-21,15:00～15:59,0.0608,0.0538,0.0572,
新宿 (Shinjuku),2011-08-21,14:00～14:59,0.0600,0.0543,0.0572,
新宿 (Shinjuku),2011-08-21,13:00～13:59,0.0598,0.0541,0.0572,
新宿 (Shinjuku),2011-08-21,12:00～12:59,0.0599,0.0550,0.0577,
新宿 (Shinjuku),2011-08-21,11:00～11:59,0.0617,0.0556,0.0588,
新宿 (Shinjuku),2011-08-21,10:00～10:59,0.0635,0.0565,0.0597,
新宿 (Shinjuku),2011-08-21,09:00～09:59,0.0638,0.0581,0.0609,
新宿 (Shinjuku),2011-08-21,08:00～08:59,0.0696,0.0600,0.0644,
新宿 (Shinjuku),2011-08-21,07:00～07:59,0.0670,0.0606,0.0635,
新宿 (Shinjuku),2011-08-21,06:00～06:59,0.0660,0.0583,0.0610,
新宿 (Shinjuku),2011-08-21,05:00～05:59,0.0645,0.0569,0.0612,
新宿 (Shinjuku),2011-08-21,04:00～04:59,0.0641,0.0588,0.0617,
新宿 (Shinjuku),2011-08-21,03:00～03:59,0.0632,0.0574,0.0596,
新宿 (Shinjuku),2011-08-21,02:00～02:59,0.0608,0.0559,0.0584,
新宿 (Shinjuku),2011-08-21,01:00～01:59,0.0625,0.0562,0.0591,
新宿 (Shinjuku),2011-08-21,00:00～00:59,0.0612,0.0537,0.0571,
新宿 (Shinjuku),2011-08-20,23:00～23:59,0.0579,0.0537,0.0560,
新宿 (Shinjuku),2011-08-20,22:00～22:59,0.0592,0.0537,0.0564,
新宿 (Shinjuku),2011-08-20,21:00～21:59,0.0595,0.0541,0.0567,
新宿 (Shinjuku),2011-08-20,20:00～20:59,0.0593,0.0544,0.0568,
新宿 (Shinjuku),2011-08-20,19:00～19:59,0.0582,0.0544,0.0565,
新宿 (Shinjuku),2011-08-20,18:00～18:59,0.0596,0.0541,0.0565,
新宿 (Shinjuku),2011-08-20,17:00～17:59,0.0584,0.0542,0.0565,
新宿 (Shinjuku),2011-08-20,16:00～16:59,0.0601,0.0537,0.0565,
新宿 (Shinjuku),2011-08-20,15:00～15:59,0.0602,0.0531,0.0563,
新宿 (Shinjuku),2011-08-20,14:00～14:59,0.0586,0.0530,0.0563,
新宿 (Shinjuku),2011-08-20,13:00～13:59,0.0588,0.0537,0.0563,
新宿 (Shinjuku),2011-08-20,12:00～12:59,0.0588,0.0534,0.0562,
新宿 (Shinjuku),2011-08-20,11:00～11:59,0.0588,0.0548,0.0567,
新宿 (Shinjuku),2011-08-20,10:00～10:59,0.0591,0.0541,0.0566,
新宿 (Shinjuku),2011-08-20,09:00～09:59,0.0596,0.0529,0.0566,
新宿 (Shinjuku),2011-08-20,08:00～08:59,0.0600,0.0537,0.0566,
新宿 (Shinjuku),2011-08-20,07:00～07:59,0.0597,0.0542,0.0567,
新宿 (Shinjuku),2011-08-20,06:00～06:59,0.0596,0.0548,0.0567,
新宿 (Shinjuku),2011-08-20,05:00～05:59,0.0591,0.0537,0.0564,
新宿 (Shinjuku),2011-08-20,04:00～04:59,0.0603,0.0543,0.0564,
新宿 (Shinjuku),2011-08-20,03:00～03:59,0.0596,0.0544,0.0565,
新宿 (Shinjuku),2011-08-20,02:00～02:59,0.0590,0.0541,0.0563,
新宿 (Shinjuku),2011-08-20,01:00～01:59,0.0583,0.0518,0.0563,
新宿 (Shinjuku),2011-08-20,00:00～00:59,0.0605,0.0546,0.0569,
新宿 (Shinjuku),2011-08-19,23:00～23:59,0.0600,0.0546,0.0576,
新宿 (Shinjuku),2011-08-19,22:00～22:59,0.0634,0.0576,0.0609,
新宿 (Shinjuku),2011-08-19,21:00～21:59,0.0656,0.0600,0.0627,
新宿 (Shinjuku),2011-08-19,20:00～20:59,0.0666,0.0580,0.0628,
新宿 (Shinjuku),2011-08-19,19:00～19:59,0.0635,0.0555,0.0582,
新宿 (Shinjuku),2011-08-19,18:00～18:59,0.0636,0.0559,0.0598,
新宿 (Shinjuku),2011-08-19,17:00～17:59,0.0669,0.0584,0.0636,
新宿 (Shinjuku),2011-08-19,16:00～16:59,0.0683,0.0612,0.0647,
新宿 (Shinjuku),2011-08-19,15:00～15:59,0.0781,0.0652,0.0708,
新宿 (Shinjuku),2011-08-19,14:00～14:59,0.0858,0.0746,0.0815,
新宿 (Shinjuku),2011-08-19,13:00～13:59,0.0865,0.0781,0.0826,
新宿 (Shinjuku),2011-08-19,12:00～12:59,0.0822,0.0714,0.0760,
新宿 (Shinjuku),2011-08-19,11:00～11:59,0.0781,0.0684,0.0727,
新宿 (Shinjuku),2011-08-19,10:00～10:59,0.0741,0.0551,0.0638,
新宿 (Shinjuku),2011-08-19,09:00～09:59,0.0604,0.0547,0.0575,
新宿 (Shinjuku),2011-08-19,08:00～08:59,0.0599,0.0547,0.0575,
新宿 (Shinjuku),2011-08-19,07:00～07:59,0.0598,0.0545,0.0575,
新宿 (Shinjuku),2011-08-19,06:00～06:59,0.0591,0.0549,0.0570,
新宿 (Shinjuku),2011-08-19,05:00～05:59,0.0597,0.0533,0.0570,
新宿 (Shinjuku),2011-08-19,04:00～04:59,0.0594,0.0548,0.0568,
新宿 (Shinjuku),2011-08-19,03:00～03:59,0.0600,0.0546,0.0573,
新宿 (Shinjuku),2011-08-19,02:00～02:59,0.0600,0.0549,0.0576,
新宿 (Shinjuku),2011-08-19,01:00～01:59,0.0604,0.0544,0.0577,
新宿 (Shinjuku),2011-08-19,00:00～00:59,0.0599,0.0547,0.0575,
新宿 (Shinjuku),2011-08-18,23:00～23:59,0.0607,0.0546,0.0571,
新宿 (Shinjuku),2011-08-18,22:00～22:59,0.0599,0.0546,0.0569,
新宿 (Shinjuku),2011-08-18,21:00～21:59,0.0603,0.0550,0.0572,
新宿 (Shinjuku),2011-08-18,20:00～20:59,0.0607,0.0541,0.0570,
新宿 (Shinjuku),2011-08-18,19:00～19:59,0.0593,0.0541,0.0569,
新宿 (Shinjuku),2011-08-18,18:00～18:59,0.0603,0.0545,0.0569,
新宿 (Shinjuku),2011-08-18,17:00～17:59,0.0597,0.0544,0.0570,
新宿 (Shinjuku),2011-08-18,16:00～16:59,0.0603,0.0543,0.0574,
新宿 (Shinjuku),2011-08-18,15:00～15:59,0.0596,0.0540,0.0567,
新宿 (Shinjuku),2011-08-18,14:00～14:59,0.0597,0.0542,0.0569,
新宿 (Shinjuku),2011-08-18,13:00～13:59,0.0600,0.0544,0.0574,
新宿 (Shinjuku),2011-08-18,12:00～12:59,0.0610,0.0542,0.0577,
新宿 (Shinjuku),2011-08-18,11:00～11:59,0.0604,0.0557,0.0578,
新宿 (Shinjuku),2011-08-18,10:00～10:59,0.0607,0.0552,0.0579,
新宿 (Shinjuku),2011-08-18,09:00～09:59,0.0621,0.0551,0.0583,
新宿 (Shinjuku),2011-08-18,08:00～08:59,0.0603,0.0554,0.0580,
新宿 (Shinjuku),2011-08-18,07:00～07:59,0.0614,0.0558,0.0579,
新宿 (Shinjuku),2011-08-18,06:00～06:59,0.0599,0.0556,0.0577,
新宿 (Shinjuku),2011-08-18,05:00～05:59,0.0600,0.0546,0.0574,
新宿 (Shinjuku),2011-08-18,04:00～04:59,0.0592,0.0548,0.0573,
新宿 (Shinjuku),2011-08-18,03:00～03:59,0.0596,0.0551,0.0571,
新宿 (Shinjuku),2011-08-18,02:00～02:59,0.0591,0.0549,0.0574,
新宿 (Shinjuku),2011-08-18,01:00～01:59,0.0600,0.0549,0.0572,
新宿 (Shinjuku),2011-08-18,00:00～00:59,0.0594,0.0545,0.0573,
新宿 (Shinjuku),2011-08-17,23:00～23:59,0.0602,0.0547,0.0573,
新宿 (Shinjuku),2011-08-17,22:00～22:59,0.0594,0.0537,0.0570,
新宿 (Shinjuku),2011-08-17,21:00～21:59,0.0593,0.0551,0.0572,
新宿 (Shinjuku),2011-08-17,20:00～20:59,0.0590,0.0539,0.0570,
新宿 (Shinjuku),2011-08-17,19:00～19:59,0.0593,0.0537,0.0568,
新宿 (Shinjuku),2011-08-17,18:00～18:59,0.0589,0.0542,0.0569,
新宿 (Shinjuku),2011-08-17,17:00～17:59,0.0603,0.0545,0.0572,
新宿 (Shinjuku),2011-08-17,16:00～16:59,0.0599,0.0534,0.0572,
新宿 (Shinjuku),2011-08-17,15:00～15:59,0.0609,0.0543,0.0573,
新宿 (Shinjuku),2011-08-17,14:00～14:59,0.0611,0.0536,0.0577,
新宿 (Shinjuku),2011-08-17,13:00～13:59,0.0614,0.0546,0.0582,
新宿 (Shinjuku),2011-08-17,12:00～12:59,0.0604,0.0554,0.0580,
新宿 (Shinjuku),2011-08-17,11:00～11:59,0.0608,0.0551,0.0577,
新宿 (Shinjuku),2011-08-17,10:00～10:59,0.0607,0.0544,0.0583,
新宿 (Shinjuku),2011-08-17,09:00～09:59,0.0605,0.0550,0.0582,
新宿 (Shinjuku),2011-08-17,08:00～08:59,0.0605,0.0559,0.0582,
新宿 (Shinjuku),2011-08-17,07:00～07:59,0.0602,0.0556,0.0580,
新宿 (Shinjuku),2011-08-17,06:00～06:59,0.0600,0.0558,0.0579,
新宿 (Shinjuku),2011-08-17,05:00～05:59,0.0600,0.0553,0.0579,
新宿 (Shinjuku),2011-08-17,04:00～04:59,0.0597,0.0557,0.0577,
新宿 (Shinjuku),2011-08-17,03:00～03:59,0.0602,0.0551,0.0575,
新宿 (Shinjuku),2011-08-17,02:00～02:59,0.0607,0.0545,0.0573,
新宿 (Shinjuku),2011-08-17,01:00～01:59,0.0607,0.0551,0.0576,
新宿 (Shinjuku),2011-08-17,00:00～00:59,0.0596,0.0543,0.0572,
新宿 (Shinjuku),2011-08-16,23:00～23:59,0.0594,0.0540,0.0573,
新宿 (Shinjuku),2011-08-16,22:00～22:59,0.0604,0.0545,0.0576,
新宿 (Shinjuku),2011-08-16,21:00～21:59,0.0606,0.0540,0.0572,
新宿 (Shinjuku),2011-08-16,20:00～20:59,0.0596,0.0551,0.0574,
新宿 (Shinjuku),2011-08-16,19:00～19:59,0.0599,0.0549,0.0574,
新宿 (Shinjuku),2011-08-16,18:00～18:59,0.0596,0.0547,0.0572,
新宿 (Shinjuku),2011-08-16,17:00～17:59,0.0602,0.0550,0.0576,
新宿 (Shinjuku),2011-08-16,16:00～16:59,0.0596,0.0545,0.0575,
新宿 (Shinjuku),2011-08-16,15:00～15:59,0.0600,0.0551,0.0575,
新宿 (Shinjuku),2011-08-16,14:00～14:59,0.0618,0.0544,0.0577,
新宿 (Shinjuku),2011-08-16,13:00～13:59,0.0607,0.0550,0.0580,
新宿 (Shinjuku),2011-08-16,12:00～12:59,0.0601,0.0548,0.0578,
新宿 (Shinjuku),2011-08-16,11:00～11:59,0.0603,0.0551,0.0578,
新宿 (Shinjuku),2011-08-16,10:00～10:59,0.0607,0.0554,0.0579,
新宿 (Shinjuku),2011-08-16,09:00～09:59,0.0611,0.0555,0.0581,
新宿 (Shinjuku),2011-08-16,08:00～08:59,0.0610,0.0551,0.0584,
新宿 (Shinjuku),2011-08-16,07:00～07:59,0.0607,0.0561,0.0583,
新宿 (Shinjuku),2011-08-16,06:00～06:59,0.0604,0.0550,0.0577,
新宿 (Shinjuku),2011-08-16,05:00～05:59,0.0596,0.0548,0.0572,
新宿 (Shinjuku),2011-08-16,04:00～04:59,0.0607,0.0547,0.0577,
新宿 (Shinjuku),2011-08-16,03:00～03:59,0.0603,0.0550,0.0575,
新宿 (Shinjuku),2011-08-16,02:00～02:59,0.0603,0.0541,0.0572,
新宿 (Shinjuku),2011-08-16,01:00～01:59,0.0594,0.0549,0.0571,
新宿 (Shinjuku),2011-08-16,00:00～00:59,0.0593,0.0546,0.0573,
新宿 (Shinjuku),2011-08-15,23:00～23:59,0.0603,0.0539,0.0573,
新宿 (Shinjuku),2011-08-15,22:00～22:59,0.0614,0.0549,0.0575,
新宿 (Shinjuku),2011-08-15,21:00～21:59,0.0593,0.0534,0.0569,
新宿 (Shinjuku),2011-08-15,20:00～20:59,0.0605,0.0555,0.0579,
新宿 (Shinjuku),2011-08-15,19:00～19:59,0.0610,0.0550,0.0577,
新宿 (Shinjuku),2011-08-15,18:00～18:59,0.0595,0.0543,0.0566,
新宿 (Shinjuku),2011-08-15,17:00～17:59,0.0594,0.0539,0.0567,
新宿 (Shinjuku),2011-08-15,16:00～16:59,0.0609,0.0547,0.0570,
新宿 (Shinjuku),2011-08-15,15:00～15:59,0.0600,0.0540,0.0572,
新宿 (Shinjuku),2011-08-15,14:00～14:59,0.0593,0.0541,0.0566,
新宿 (Shinjuku),2011-08-15,13:00～13:59,0.0596,0.0537,0.0569,
新宿 (Shinjuku),2011-08-15,12:00～12:59,0.0594,0.0533,0.0566,
新宿 (Shinjuku),2011-08-15,11:00～11:59,0.0596,0.0548,0.0569,
新宿 (Shinjuku),2011-08-15,10:00～10:59,0.0600,0.0550,0.0573,
新宿 (Shinjuku),2011-08-15,09:00～09:59,0.0597,0.0543,0.0572,
新宿 (Shinjuku),2011-08-15,08:00～08:59,0.0599,0.0544,0.0574,
新宿 (Shinjuku),2011-08-15,07:00～07:59,0.0599,0.0548,0.0574,
新宿 (Shinjuku),2011-08-15,06:00～06:59,0.0600,0.0551,0.0572,
新宿 (Shinjuku),2011-08-15,05:00～05:59,0.0589,0.0532,0.0564,
新宿 (Shinjuku),2011-08-15,04:00～04:59,0.0593,0.0534,0.0566,
新宿 (Shinjuku),2011-08-15,03:00～03:59,0.0593,0.0544,0.0567,
新宿 (Shinjuku),2011-08-15,02:00～02:59,0.0607,0.0547,0.0571,
新宿 (Shinjuku),2011-08-15,01:00～01:59,0.0590,0.0551,0.0570,
新宿 (Shinjuku),2011-08-15,00:00～00:59,0.0591,0.0539,0.0569,
